Total_Precipitation_Accumulation
0.46 0.40 0.37 0.44 0.44 0.38 0.34 0.38 0.45 0.48 0.51 0.62 0.75 0.84 0.92 1.06 1.25 1.30 1.37 1.51 1.52 1.54 1.66 1.76 1.84 1.81 1.75 1.85 2.06 2.46 2.36 2.01 1.78 1.78 1.65 1.49 1.43 1.49 1.48 1.63 1.71 1.62 1.54
0.37 0.32 0.31 0.34 0.36 0.35 0.33 0.34 0.42 0.53 0.59 0.65 0.78 0.92 1.14 1.26 1.39 1.54 1.54 1.55 1.60 1.65 1.72 1.93 2.05 2.03 2.03 2.12 2.19 2.47 2.67 2.42 2.18 2.16 2.32 2.09 1.87 1.52 1.27 1.36 1.50 1.56 1.59
0.32 0.25 0.27 0.29 0.31 0.32 0.40 0.41 0.51 0.71 0.89 0.96 1.17 1.45 1.71 1.78 1.72 1.72 1.78 1.76 1.77 1.84 1.81 1.91 2.11 2.12 2.13 2.20 2.39 2.71 3.05 3.02 2.73 2.46 2.64 2.39 2.12 2.01 1.50 1.22 1.29 1.44 1.56
0.39 0.30 0.29 0.32 0.29 0.34 0.47 0.64 0.84 1.14 1.36 1.46 1.63 1.85 1.96 2.00 1.92 1.93 1.95 1.94 1.84 1.76 1.76 1.87 2.06 2.22 2.35 2.48 2.55 2.55 2.95 3.27 3.10 2.89 2.51 2.19 2.06 2.21 2.05 1.58 1.30 1.35 1.41
0.43 0.43 0.42 0.47 0.49 0.59 0.80 1.14 1.41 1.60 1.72 1.75 1.81 2.00 2.14 2.29 2.31 2.21 2.07 1.99 1.95 1.88 1.78 1.81 1.86 1.91 2.02 2.19 2.33 2.41 2.66 2.88 3.07 3.05 2.83 2.54 2.36 1.94 1.93 2.00 1.75 1.50 1.29
0.47 0.57 0.70 0.84 0.92 1.01 1.22 1.45 1.61 1.75 1.71 1.68 1.70 1.83 2.01 2.17 2.19 2.23 2.22 2.10 1.98 1.87 1.75 1.67 1.75 1.76 1.77 1.92 2.05 2.17 2.45 2.66 2.80 2.88 2.79 2.69 2.64 2.33 2.05 1.89 1.86 1.72 1.50
0.56 0.76 0.93 1.09 1.20 1.30 1.41 1.45 1.44 1.51 1.53 1.49 1.49 1.56 1.63 1.66 1.71 1.83 1.77 1.66 1.56 1.51 1.48 1.39 1.42 1.54 1.60 1.77 1.86 1.83 1.90 2.09 2.31 2.50 2.55 2.58 2.50 2.43 2.33 2.18 1.99 1.75 1.44
0.83 0.96 1.06 1.18 1.23 1.36 1.41 1.37 1.33 1.33 1.27 1.21 1.22 1.21 1.25 1.33 1.33 1.34 1.30 1.23 1.19 1.17 1.13 1.13 1.12 1.17 1.24 1.46 1.68 1.69 1.70 1.76 1.86 1.95 2.23 2.40 2.36 2.38 2.17 2.07 2.11 1.89 1.59
1.08 1.26 1.26 1.17 1.11 1.17 1.24 1.22 1.17 1.12 1.03 0.98 1.00 1.01 1.07 1.11 1.08 1.03 0.97 0.97 0.90 0.90 0.89 0.93 1.01 1.07 1.05 1.14 1.27 1.46 1.54 1.62 1.69 1.71 1.88 2.03 2.13 2.10 1.93 1.96 2.07 1.97 1.68
1.16 1.44 1.55 1.43 1.19 1.01 1.03 1.01 1.00 1.03 1.02 0.99 1.00 0.97 0.89 0.80 0.79 0.80 0.73 0.73 0.78 0.79 0.81 0.81 0.86 0.92 0.93 1.01 1.11 1.17 1.28 1.38 1.54 1.71 1.83 1.86 1.90 1.95 1.84 1.83 1.96 1.96 1.77
1.38 1.51 1.52 1.39 1.23 0.97 0.90 0.90 0.89 0.92 0.99 0.93 0.95 0.94 0.82 0.68 0.64 0.60 0.55 0.56 0.59 0.64 0.64 0.69 0.79 0.82 0.84 0.86 0.85 0.88 0.96 1.04 1.15 1.22 1.34 1.54 1.73 1.82 1.81 1.85 1.91 1.96 1.84
1.07 1.07 1.15 1.15 1.09 0.97 0.91 0.97 1.00 1.00 0.94 0.87 0.85 0.83 0.76 0.66 0.66 0.60 0.51 0.53 0.59 0.61 0.62 0.66 0.71 0.72 0.79 0.83 0.81 0.79 0.83 0.94 1.03 1.04 1.06 1.16 1.39 1.56 1.68 1.76 1.77 1.84 1.83
0.81 0.74 0.84 0.98 0.92 0.86 0.90 0.98 1.10 1.12 1.03 0.91 0.83 0.82 0.77 0.75 0.78 0.67 0.57 0.57 0.66 0.78 0.80 0.78 0.80 0.76 0.80 0.82 0.80 0.82 0.85 0.88 0.93 0.95 0.96 1.04 1.15 1.31 1.39 1.48 1.58 1.66 1.78
0.64 0.59 0.56 0.63 0.64 0.66 0.67 0.77 1.03 1.24 1.20 1.09 0.97 0.90 0.85 0.84 0.82 0.70 0.62 0.59 0.63 0.68 0.69 0.77 0.83 0.90 0.94 0.92 0.87 0.87 0.87 0.82 0.83 0.90 0.97 0.98 1.01 1.18 1.39 1.48 1.54 1.58 1.69
0.42 0.39 0.36 0.38 0.39 0.45 0.51 0.61 0.90 1.11 1.12 1.11 0.99 0.89 0.81 0.74 0.69 0.67 0.68 0.62 0.56 0.56 0.56 0.64 0.72 0.82 0.92 0.97 0.96 0.83 0.73 0.73 0.78 0.78 0.79 0.86 0.95 1.02 1.21 1.33 1.55 1.57 1.69
0.33 0.33 0.31 0.28 0.26 0.27 0.33 0.41 0.59 0.77 0.86 0.91 0.88 0.75 0.73 0.66 0.58 0.62 0.69 0.68 0.56 0.51 0.51 0.56 0.53 0.56 0.61 0.79 0.81 0.70 0.58 0.62 0.70 0.76 0.78 0.77 0.80 0.84 0.91 0.94 1.17 1.37 1.49
0.34 0.36 0.35 0.32 0.30 0.27 0.28 0.30 0.35 0.46 0.55 0.60 0.62 0.53 0.53 0.63 0.66 0.68 0.66 0.59 0.48 0.50 0.50 0.44 0.40 0.41 0.46 0.53 0.54 0.61 0.59 0.59 0.63 0.71 0.80 0.83 0.80 0.87 0.96 0.94 0.98 1.08 1.14
0.36 0.33 0.31 0.29 0.27 0.25 0.25 0.26 0.27 0.30 0.33 0.33 0.31 0.29 0.37 0.52 0.55 0.52 0.48 0.43 0.43 0.47 0.52 0.45 0.40 0.45 0.44 0.48 0.55 0.59 0.57 0.68 0.74 0.74 0.74 0.84 0.89 0.96 1.12 1.10 1.16 1.10 1.00
0.17 0.15 0.14 0.14 0.13 0.13 0.15 0.15 0.12 0.13 0.14 0.14 0.14 0.18 0.20 0.24 0.26 0.24 0.26 0.32 0.38 0.42 0.38 0.42 0.55 0.54 0.54 0.63 0.58 0.52 0.58 0.70 0.78 0.73 0.74 0.85 0.94 1.11 1.22 1.23 1.24 1.14 1.06
0.05 0.07 0.09 0.10 0.09 0.10 0.12 0.12 0.11 0.10 0.11 0.12 0.13 0.15 0.16 0.19 0.19 0.19 0.21 0.24 0.27 0.33 0.36 0.40 0.53 0.57 0.62 0.63 0.50 0.48 0.59 0.71 0.79 0.78 0.76 0.96 0.97 1.06 1.12 1.18 1.29 1.30 1.17
0.06 0.07 0.08 0.08 0.09 0.10 0.11 0.11 0.10 0.11 0.15 0.16 0.15 0.13 0.14 0.18 0.23 0.27 0.26 0.25 0.24 0.26 0.30 0.35 0.40 0.40 0.40 0.41 0.41 0.44 0.50 0.60 0.72 0.75 0.75 0.71 0.85 0.88 0.98 1.11 1.17 1.40 1.29
0.06 0.09 0.09 0.09 0.11 0.12 0.12 0.12 0.11 0.13 0.17 0.17 0.16 0.15 0.17 0.19 0.23 0.32 0.33 0.29 0.27 0.25 0.26 0.31 0.38 0.39 0.34 0.30 0.32 0.37 0.44 0.56 0.59 0.60 0.67 0.66 0.75 0.79 0.87 0.89 1.07 1.27 1.23
0.06 0.08 0.10 0.12 0.12 0.13 0.14 0.15 0.15 0.16 0.18 0.17 0.17 0.18 0.20 0.22 0.23 0.26 0.29 0.30 0.29 0.29 0.30 0.32 0.36 0.37 0.37 0.35 0.38 0.42 0.47 0.51 0.46 0.44 0.59 0.67 0.74 0.72 0.70 0.83 1.03 1.09 1.11
0.06 0.06 0.08 0.11 0.15 0.17 0.18 0.19 0.21 0.22 0.21 0.20 0.20 0.20 0.22 0.25 0.26 0.29 0.30 0.32 0.35 0.35 0.35 0.36 0.40 0.42 0.42 0.39 0.37 0.40 0.43 0.44 0.43 0.44 0.59 0.72 0.78 0.75 0.72 0.79 0.92 0.97 1.10
0.10 0.07 0.07 0.09 0.13 0.17 0.19 0.22 0.22 0.23 0.24 0.24 0.24 0.24 0.25 0.26 0.30 0.34 0.35 0.34 0.35 0.38 0.35 0.37 0.41 0.40 0.37 0.38 0.40 0.41 0.43 0.44 0.47 0.57 0.73 0.85 0.86 0.87 0.83 0.85 0.94 0.93 0.90
0.08 0.09 0.09 0.09 0.10 0.12 0.13 0.17 0.17 0.19 0.21 0.26 0.26 0.24 0.27 0.31 0.32 0.33 0.33 0.34 0.35 0.37 0.35 0.34 0.37 0.38 0.37 0.38 0.40 0.44 0.47 0.46 0.56 0.74 0.90 1.02 1.09 1.09 1.03 0.99 0.97 0.90 0.87